TimeCDT,TemperatureF,Dew PointF,Humidity,Sea Level PressureIn,VisibilityMPH,Wind Direction,Wind SpeedMPH,Gust SpeedMPH,PrecipitationIn,Events,Conditions,WindDirDegrees,DateUTC
12:15 AM,54.3,50.9,88,30.04,10.0,Calm,Calm,-,N/A,,Clear,0,2013-09-04 05:15:00
12:35 AM,52.5,49.5,89,30.04,10.0,Calm,Calm,-,N/A,,Clear,0,2013-09-04 05:35:00
12:55 AM,52.9,49.3,88,30.05,10.0,Calm,Calm,-,N/A,,Clear,0,2013-09-04 05:55:00
1:15 AM,52.9,49.6,89,30.05,10.0,Calm,Calm,-,N/A,,Clear,0,2013-09-04 06:15:00
1:35 AM,53.1,48.6,85,30.05,10.0,Calm,Calm,-,N/A,,Clear,0,2013-09-04 06:35:00
1:55 AM,51.8,48.2,88,30.05,10.0,Calm,Calm,-,N/A,,Clear,0,2013-09-04 06:55:00
2:15 AM,51.6,48.4,89,30.05,10.0,Calm,Calm,-,N/A,,Clear,0,2013-09-04 07:15:00
2:35 AM,50.4,47.1,89,30.05,10.0,SSW,3.5,-,N/A,,Clear,210,2013-09-04 07:35:00
2:55 AM,51.6,48.6,89,30.06,10.0,SW,4.6,-,N/A,,Clear,220,2013-09-04 07:55:00
3:15 AM,55.4,51.3,86,30.06,10.0,SW,5.8,-,N/A,,Clear,220,2013-09-04 08:15:00
3:35 AM,55.4,50.9,85,30.06,10.0,SW,3.5,-,N/A,,Clear,230,2013-09-04 08:35:00
3:55 AM,54.7,50.7,86,30.07,10.0,SW,4.6,-,N/A,,Clear,230,2013-09-04 08:55:00
4:15 AM,53.8,49.6,86,30.07,10.0,SW,3.5,-,N/A,,Clear,230,2013-09-04 09:15:00
4:35 AM,53.4,49.5,86,30.07,10.0,Calm,Calm,-,N/A,,Clear,0,2013-09-04 09:35:00
4:55 AM,53.8,50.4,88,30.07,10.0,Calm,Calm,-,N/A,,Clear,0,2013-09-04 09:55:00
5:15 AM,54.1,50.4,87,30.08,10.0,SW,4.6,-,N/A,,Clear,220,2013-09-04 10:15:00
5:35 AM,52.7,48.9,87,30.08,10.0,Calm,Calm,-,N/A,,Clear,0,2013-09-04 10:35:00
5:55 AM,54.3,50.7,88,30.09,10.0,Calm,Calm,-,N/A,,Clear,0,2013-09-04 10:55:00
6:15 AM,52.9,49.1,87,30.09,10.0,Calm,Calm,-,N/A,,Clear,0,2013-09-04 11:15:00
6:35 AM,51.8,48.9,90,30.10,10.0,Calm,Calm,-,N/A,,Clear,0,2013-09-04 11:35:00
6:55 AM,52.2,49.6,91,30.10,10.0,Calm,Calm,-,N/A,,Clear,0,2013-09-04 11:55:00
7:15 AM,54.3,51.4,90,30.10,10.0,SW,3.5,-,N/A,,Clear,220,2013-09-04 12:15:00
7:35 AM,57.6,52.5,83,30.11,10.0,Calm,Calm,-,N/A,,Clear,0,2013-09-04 12:35:00
7:55 AM,59.9,53.1,78,30.11,10.0,West,3.5,-,N/A,,Clear,260,2013-09-04 12:55:00
8:15 AM,62.4,52.9,71,30.11,10.0,WSW,4.6,-,N/A,,Clear,250,2013-09-04 13:15:00
8:35 AM,64.6,53.6,68,30.11,10.0,West,5.8,-,N/A,,Clear,260,2013-09-04 13:35:00
8:55 AM,67.5,53.8,61,30.10,10.0,West,5.8,-,N/A,,Clear,260,2013-09-04 13:55:00
9:15 AM,69.4,53.8,57,30.11,10.0,WSW,9.2,-,N/A,,Clear,240,2013-09-04 14:15:00
9:35 AM,69.8,54.5,58,30.11,10.0,West,9.2,-,N/A,,Clear,280,2013-09-04 14:35:00
9:55 AM,71.2,54.5,55,30.11,10.0,West,8.1,-,N/A,,Clear,270,2013-09-04 14:55:00
10:15 AM,72.9,55.2,54,30.12,10.0,West,6.9,-,N/A,,Clear,270,2013-09-04 15:15:00
10:35 AM,74.8,55.6,51,30.12,10.0,West,6.9,-,N/A,,Clear,260,2013-09-04 15:35:00
11:15 AM,77.7,55.0,45,30.11,10.0,West,5.8,-,N/A,,Clear,280,2013-09-04 16:15:00
11:35 AM,78.6,55.4,45,30.11,10.0,WNW,4.6,-,N/A,,Clear,290,2013-09-04 16:35:00
11:55 AM,78.8,55.4,44,30.12,10.0,West,4.6,-,N/A,,Clear,260,2013-09-04 16:55:00
12:15 PM,79.5,55.4,43,30.12,10.0,NW,8.1,-,N/A,,Clear,320,2013-09-04 17:15:00
12:35 PM,78.6,55.0,44,30.11,10.0,West,5.8,-,N/A,,Clear,280,2013-09-04 17:35:00
12:55 PM,82.2,54.7,39,30.11,10.0,WSW,8.1,-,N/A,,Clear,240,2013-09-04 17:55:00
1:15 PM,81.5,54.3,39,30.11,10.0,WNW,8.1,-,N/A,,Clear,290,2013-09-04 18:15:00
1:35 PM,82.4,54.1,38,30.11,10.0,NNW,5.8,-,N/A,,Clear,330,2013-09-04 18:35:00
1:55 PM,83.5,54.9,37,30.10,10.0,West,8.1,-,N/A,,Clear,270,2013-09-04 18:55:00
2:15 PM,84.2,50.0,30,30.10,10.0,WNW,10.4,-,N/A,,Clear,300,2013-09-04 19:15:00
2:35 PM,84.0,51.6,33,30.09,10.0,West,8.1,-,N/A,,Clear,280,2013-09-04 19:35:00
2:55 PM,85.3,52.0,32,30.09,10.0,NW,10.4,-,N/A,,Clear,320,2013-09-04 19:55:00
3:15 PM,84.2,52.0,33,30.09,10.0,NW,6.9,-,N/A,,Clear,310,2013-09-04 20:15:00
3:35 PM,83.3,53.6,36,30.08,10.0,Calm,Calm,-,N/A,,Clear,0,2013-09-04 20:35:00
3:55 PM,84.6,54.3,35,30.08,10.0,West,8.1,-,N/A,,Clear,260,2013-09-04 20:55:00
4:15 PM,84.7,54.5,35,30.08,10.0,NW,6.9,-,N/A,,Clear,310,2013-09-04 21:15:00
4:35 PM,83.5,55.9,39,30.08,10.0,WNW,5.8,-,N/A,,Clear,300,2013-09-04 21:35:00
4:55 PM,85.1,55.0,36,30.07,10.0,WNW,6.9,-,N/A,,Clear,290,2013-09-04 21:55:00
5:15 PM,84.6,55.0,36,30.07,10.0,NW,4.6,-,N/A,,Clear,320,2013-09-04 22:15:00
5:35 PM,84.2,54.9,36,30.07,10.0,WNW,5.8,-,N/A,,Clear,300,2013-09-04 22:35:00
5:55 PM,82.8,55.2,39,30.07,10.0,WNW,5.8,-,N/A,,Clear,300,2013-09-04 22:55:00
6:15 PM,81.5,55.9,41,30.07,10.0,WNW,5.8,-,N/A,,Clear,300,2013-09-04 23:15:00
6:35 PM,81.0,56.8,44,30.08,10.0,NW,4.6,-,N/A,,Clear,320,2013-09-04 23:35:00
6:55 PM,79.9,57.2,46,30.08,10.0,WNW,3.5,-,N/A,,Clear,300,2013-09-04 23:55:00
7:15 PM,78.1,57.7,49,30.08,10.0,Calm,Calm,-,N/A,,Clear,0,2013-09-05 00:15:00
7:35 PM,76.8,58.3,53,30.08,10.0,West,3.5,-,N/A,,Clear,280,2013-09-05 00:35:00
7:55 PM,73.4,58.5,59,30.09,10.0,Calm,Calm,-,N/A,,Clear,0,2013-09-05 00:55:00
8:15 PM,72.0,59.2,64,30.09,10.0,Calm,Calm,-,N/A,,Clear,0,2013-09-05 01:15:00
8:35 PM,70.3,57.9,65,30.09,10.0,Calm,Calm,-,N/A,,Clear,0,2013-09-05 01:35:00
8:55 PM,70.0,58.1,66,30.10,10.0,Calm,Calm,-,N/A,,Scattered Clouds,0,2013-09-05 01:55:00
9:15 PM,68.5,58.5,70,30.11,10.0,NE,6.9,-,N/A,,Mostly Cloudy,40,2013-09-05 02:15:00
9:35 PM,69.6,60.4,73,30.11,10.0,ENE,5.8,-,N/A,,Scattered Clouds,60,2013-09-05 02:35:00
9:55 PM,68.9,60.8,75,30.12,10.0,ENE,6.9,-,N/A,,Clear,70,2013-09-05 02:55:00
10:15 PM,68.2,61.0,78,30.12,10.0,NE,8.1,-,N/A,,Clear,50,2013-09-05 03:15:00
10:35 PM,67.6,61.0,79,30.12,10.0,NE,5.8,-,N/A,,Clear,50,2013-09-05 03:35:00
10:55 PM,66.6,60.8,82,30.13,10.0,NE,3.5,-,N/A,,Clear,50,2013-09-05 03:55:00
11:15 PM,65.5,60.6,84,30.14,10.0,NE,3.5,-,N/A,,Clear,50,2013-09-05 04:15:00
11:35 PM,64.8,60.8,87,30.14,10.0,Calm,Calm,-,N/A,,Clear,0,2013-09-05 04:35:00
11:55 PM,64.4,60.8,88,30.14,10.0,NE,3.5,-,N/A,,Clear,50,2013-09-05 04:55:00